This is the latest recevied weather packets stored in our database for station/object KC3SOZ. If no packets are shown the sender has not sent any weather packets the latest 10 day(s).
| Time | Temp. | Humidity | Pressure | Rain* | Wind** | Luminosity | Snow |
|---|---|---|---|---|---|---|---|
| 1777592012 | 10° C | 96% | 1011.8 hPa | 0 mm | - | 1 W/m² | - |
| 1777591709 | 10° C | 95% | 1011.8 hPa | 0 mm | - | 3 W/m² | - |
| 1777591404 | 10° C | 95% | 1011.7 hPa | 0 mm | - | 6 W/m² | - |
| 1777591101 | 10° C | 95% | 1011.5 hPa | 0 mm | - | 11 W/m² | - |
| 1777590796 | 10° C | 94% | 1011.6 hPa | 0 mm | - | 13 W/m² | - |
| 1777590492 | 10° C | 94% | 1011.7 hPa | 0 mm | - | 31 W/m² | - |
| 1777590189 | 10° C | 93% | 1011.6 hPa | 0 mm | - | 32 W/m² | - |
| 1777589886 | 10° C | 93% | 1011.5 hPa | 0 mm | - | 36 W/m² | - |
| 1777589582 | 10° C | 93% | 1011.5 hPa | 0 mm | - | 55 W/m² | - |
| 1777589279 | 10° C | 92% | 1011.2 hPa | 0 mm | - | 52 W/m² | - |
| 1777588977 | 10° C | 92% | 1011.2 hPa | 0 mm | - | 53 W/m² | - |
| 1777588672 | 10° C | 91% | 1011.4 hPa | 0 mm | - | 60 W/m² | - |
| 1777588362 | 10° C | 91% | 1011.3 hPa | 0 mm | - | 65 W/m² | - |
| 1777588058 | 10° C | 91% | 1011.4 hPa | 0 mm | - | 68 W/m² | - |
| 1777587754 | 10° C | 91% | 1011.2 hPa | 0 mm | - | 55 W/m² | - |
| 1777587453 | 10° C | 91% | 1011.2 hPa | 0 mm | - | 37 W/m² | - |
| 1777587151 | 10° C | 92% | 1011.1 hPa | 0 mm | - | 31 W/m² | - |
| 1777586846 | 10° C | 92% | 1011 hPa | 0 mm | - | 39 W/m² | - |
| 1777586542 | 10° C | 93% | 1011.2 hPa | 0 mm | - | 38 W/m² | - |
| 1777586237 | 10.56° C | 94% | 1011.1 hPa | 0 mm | - | 40 W/m² | - |
| 1777585935 | 10.56° C | 93% | 1011 hPa | 0 mm | - | 37 W/m² | - |
| 1777585630 | 10.56° C | 92% | 1010.8 hPa | 0 mm | - | 36 W/m² | - |
| 1777585325 | 10.56° C | 92% | 1010.8 hPa | 0 mm | - | 57 W/m² | - |
| 1777585021 | 11.11° C | 93% | 1010.8 hPa | 0 mm | - | 65 W/m² | - |
| 1777584717 | 11.11° C | 92% | 1010.7 hPa | 0 mm | - | 73 W/m² | - |
* Rain latest hour (hover to see other rain measurements)
** Current wind speed in m/s (hover to see current wind gust speed)